• In Netherlands
  • List of Countries
  • For 7 days
  • Water Temperature
  • Satellite Maps
  • Weather Map
  • Weather Widgets
  • user-avatar
    Login

    Hourly Weather Shusha

    Today, 21 September, Thursday

    Time Temperature Precipitation Wind Pressure Humidity
    00:00 +20°C° 0 mm 1 mps 662 mmHg 49%
    01:00 +19°C° 0 mm 1 mps 662 mmHg 49%
    02:00 +19°C° 0 mm 1 mps 662 mmHg 49%
    03:00 +19°C° 0 mm 1 mps 661 mmHg 52%
    04:00 +19°C° 0 mm 1 mps 662 mmHg 52%
    05:00 +19°C° 0 mm 1 mps 662 mmHg 53%
    06:00 +19°C° 0 mm 1 mps 662 mmHg 53%
    07:00 +21°C° 0 mm 1 mps 662 mmHg 48%
    08:00 +23°C° 0 mm 1 mps 663 mmHg 43%
    09:00 +25°C° 0 mm 2 mps 663 mmHg 37%
    10:00 +27°C° 0 mm 2 mps 663 mmHg 34%
    11:00 +28°C° 0 mm 2 mps 663 mmHg 31%
    12:00 +29°C° 0 mm 3 mps 664 mmHg 28%
    13:00 +29°C° 0 mm 3 mps 663 mmHg 28%
    14:00 +29°C° 0 mm 3 mps 663 mmHg 28%
    15:00 +29°C° 0 mm 3 mps 662 mmHg 29%
    16:00 +27°C° 0 mm 2 mps 662 mmHg 34%
    17:00 +25°C° 0 mm 2 mps 662 mmHg 38%
    18:00 +24°C° 0 mm 1 mps 661 mmHg 42%
    19:00 +23°C° 0.1 mm 1 mps 661 mmHg 45%
    20:00 +22°C° 0.1 mm 1 mps 661 mmHg 47%
    21:00 +21°C° 0.1 mm 1 mps 661 mmHg 50%
    22:00 +21°C° 0 mm 1 mps 661 mmHg 51%
    23:00 +20°C° 0 mm 1 mps 661 mmHg 52%

    Tomorrow, 22 September, Friday

    Time Temperature Precipitation Wind Pressure Humidity
    00:00 +20°C° 0 mm 1 mps 661 mmHg 53%
    01:00 +19°C° 0 mm 1 mps 661 mmHg 54%
    02:00 +19°C° 0 mm 1 mps 661 mmHg 55%
    03:00 +19°C° 0 mm 1 mps 660 mmHg 56%
    04:00 +19°C° 0 mm 1 mps 660 mmHg 56%
    05:00 +18°C° 0 mm 1 mps 660 mmHg 57%
    06:00 +18°C° 0 mm 1 mps 660 mmHg 58%
    07:00 +20°C° 0 mm 1 mps 661 mmHg 52%
    08:00 +22°C° 0 mm 1 mps 661 mmHg 46%
    09:00 +24°C° 0 mm 2 mps 661 mmHg 40%
    10:00 +25°C° 0 mm 2 mps 661 mmHg 36%
    11:00 +27°C° 0 mm 2 mps 661 mmHg 33%
    12:00 +28°C° 0 mm 3 mps 661 mmHg 29%
    13:00 +28°C° 0 mm 3 mps 661 mmHg 29%
    14:00 +28°C° 0 mm 3 mps 661 mmHg 29%
    15:00 +28°C° 0 mm 3 mps 660 mmHg 28%
    16:00 +27°C° 0 mm 2 mps 660 mmHg 33%
    17:00 +25°C° 0 mm 2 mps 659 mmHg 38%
    18:00 +23°C° 0 mm 1 mps 659 mmHg 42%
    19:00 +22°C° 0 mm 1 mps 659 mmHg 45%
    20:00 +21°C° 0 mm 1 mps 659 mmHg 48%
    21:00 +21°C° 0 mm 1 mps 660 mmHg 50%
    22:00 +20°C° 0 mm 1 mps 660 mmHg 52%
    23:00 +20°C° 0 mm 1 mps 660 mmHg 53%

    Day after tomorrow, 23 September, Saturday

    Time Temperature Precipitation Wind Pressure Humidity
    00:00 +20°C° 0 mm 1 mps 660 mmHg 54%
    01:00 +19°C° 0 mm 1 mps 660 mmHg 55%
    02:00 +19°C° 0 mm 1 mps 660 mmHg 57%
    03:00 +19°C° 0 mm 1 mps 661 mmHg 58%
    04:00 +18°C° 0 mm 1 mps 661 mmHg 59%
    05:00 +18°C° 0 mm 1 mps 661 mmHg 59%
    06:00 +18°C° 0 mm 1 mps 661 mmHg 60%
    07:00 +20°C° 0 mm 1 mps 662 mmHg 55%
    08:00 +21°C° 0 mm 1 mps 662 mmHg 50%
    09:00 +23°C° 0 mm 2 mps 663 mmHg 45%
    10:00 +24°C° 0 mm 2 mps 663 mmHg 41%
    11:00 +25°C° 0 mm 3 mps 663 mmHg 38%
    12:00 +27°C° 0 mm 3 mps 663 mmHg 34%
    13:00 +27°C° 0 mm 3 mps 663 mmHg 34%
    14:00 +27°C° 0 mm 4 mps 663 mmHg 33%
    15:00 +27°C° 0 mm 4 mps 662 mmHg 33%
    16:00 +25°C° 0 mm 3 mps 662 mmHg 37%
    17:00 +24°C° 0 mm 3 mps 662 mmHg 41%
    18:00 +21°C° 0 mm 3 mps 662 mmHg 45%
    19:00 +20°C° 0 mm 3 mps 662 mmHg 48%
    20:00 +19°C° 0 mm 2 mps 662 mmHg 50%
    21:00 +18°C° 0 mm 2 mps 662 mmHg 53%
    22:00 +17°C° 0 mm 2 mps 662 mmHg 55%
    23:00 +17°C° 0 mm 2 mps 662 mmHg 57%

    24 September, Sunday

    Time Temperature Precipitation Wind Pressure Humidity
    00:00 +16°C° 0 mm 1 mps 662 mmHg 59%
    01:00 +16°C° 0 mm 1 mps 662 mmHg 60%
    02:00 +15°C° 0 mm 1 mps 662 mmHg 61%
    03:00 +15°C° 0 mm 1 mps 662 mmHg 62%
    04:00 +15°C° 0 mm 1 mps 663 mmHg 63%
    05:00 +15°C° 0 mm 1 mps 663 mmHg 64%
    06:00 +14°C° 0 mm 1 mps 663 mmHg 66%
    07:00 +16°C° 0 mm 2 mps 664 mmHg 60%
    08:00 +18°C° 0 mm 2 mps 664 mmHg 54%
    09:00 +20°C° 0 mm 2 mps 665 mmHg 48%
    10:00 +21°C° 0 mm 3 mps 665 mmHg 45%
    11:00 +22°C° 0 mm 3 mps 665 mmHg 43%
    12:00 +24°C° 0 mm 3 mps 665 mmHg 40%
    13:00 +23°C° 0 mm 4 mps 665 mmHg 41%
    14:00 +23°C° 0 mm 4 mps 664 mmHg 42%
    15:00 +25°C° 0 mm 4 mps 664 mmHg 43%
    16:00 +22°C° 0 mm 4 mps 664 mmHg 49%
    17:00 +20°C° 0 mm 3 mps 664 mmHg 55%
    18:00 +19°C° 0 mm 3 mps 664 mmHg 62%
    19:00 +18°C° 0.1 mm 3 mps 664 mmHg 67%
    20:00 +17°C° 0.1 mm 2 mps 664 mmHg 72%
    21:00 +16°C° 0.1 mm 2 mps 664 mmHg 77%
    22:00 +16°C° 0 mm 2 mps 664 mmHg 78%
    23:00 +15°C° 0 mm 1 mps 664 mmHg 80%

    25 September, Monday

    Time Temperature Precipitation Wind Pressure Humidity
    00:00 +15°C° 0 mm 1 mps 664 mmHg 82%
    01:00 +15°C° 0 mm 1 mps 664 mmHg 82%
    02:00 +14°C° 0 mm 1 mps 663 mmHg 83%
    03:00 +14°C° 0 mm 1 mps 663 mmHg 83%
    04:00 +14°C° 0 mm 1 mps 663 mmHg 83%
    05:00 +14°C° 0 mm 1 mps 663 mmHg 82%
    06:00 +13°C° 0 mm 1 mps 664 mmHg 81%
    07:00 +15°C° 0 mm 1 mps 664 mmHg 71%
    08:00 +17°C° 0 mm 2 mps 665 mmHg 61%
    09:00 +19°C° 0 mm 2 mps 665 mmHg 51%
    10:00 +20°C° 0 mm 2 mps 665 mmHg 48%
    11:00 +21°C° 0 mm 2 mps 665 mmHg 46%
    12:00 +22°C° 0 mm 3 mps 665 mmHg 43%
    13:00 +22°C° 0 mm 3 mps 665 mmHg 44%
    14:00 +24°C° 0 mm 3 mps 665 mmHg 44%
    15:00 +24°C° 0 mm 3 mps 664 mmHg 45%
    16:00 +21°C° 0.1 mm 3 mps 664 mmHg 49%
    17:00 +20°C° 0.1 mm 3 mps 664 mmHg 54%
    18:00 +19°C° 0.1 mm 3 mps 664 mmHg 58%
    19:00 +18°C° 0 mm 3 mps 664 mmHg 61%
    20:00 +17°C° 0 mm 3 mps 664 mmHg 64%
    21:00 +16°C° 0 mm 3 mps 664 mmHg 68%
    22:00 +16°C° 0 mm 2 mps 664 mmHg 70%
    23:00 +15°C° 0 mm 2 mps 664 mmHg 72%

    26 September, Tuesday

    Time Temperature Precipitation Wind Pressure Humidity
    00:00 +14°C° 0 mm 2 mps 664 mmHg 74%
    01:00 +14°C° 0 mm 1 mps 663 mmHg 75%
    02:00 +14°C° 0 mm 1 mps 663 mmHg 77%
    03:00 +13°C° 0 mm 1 mps 663 mmHg 78%
    04:00 +13°C° 0 mm 1 mps 663 mmHg 78%
    05:00 +13°C° 0 mm 1 mps 663 mmHg 79%
    06:00 +13°C° 0 mm 1 mps 663 mmHg 80%
    07:00 +14°C° 0 mm 2 mps 663 mmHg 73%
    08:00 +16°C° 0 mm 2 mps 664 mmHg 66%
    09:00 +18°C° 0 mm 3 mps 664 mmHg 59%
    10:00 +19°C° 0 mm 3 mps 664 mmHg 55%
    11:00 +20°C° 0 mm 3 mps 664 mmHg 52%
    12:00 +21°C° 0 mm 3 mps 664 mmHg 48%
    13:00 +21°C° 0 mm 3 mps 663 mmHg 47%
    14:00 +21°C° 0 mm 3 mps 663 mmHg 47%
    15:00 +22°C° 0 mm 4 mps 662 mmHg 47%
    16:00 +20°C° 0 mm 3 mps 662 mmHg 53%
    17:00 +19°C° 0 mm 3 mps 662 mmHg 60%
    18:00 +17°C° 0 mm 2 mps 661 mmHg 67%
    19:00 +16°C° 0 mm 2 mps 661 mmHg 70%
    20:00 +16°C° 0 mm 2 mps 661 mmHg 74%
    21:00 +15°C° 0 mm 1 mps 661 mmHg 77%
    22:00 +15°C° 0.1 mm 1 mps 661 mmHg 78%
    23:00 +14°C° 0.1 mm 1 mps 661 mmHg 79%
    Show more